Bingham Lake, MN

11:18 AM CST on February 20, 2017 (GMT -0600)
Windom Municipal

Weather History for KMWM - January, 2014

Change the Weather History Date:

Friday, January 31, 2014

  Actual Average Record
Temperature  
Mean Temperature 4 °F -  
Max Temperature 12 °F 25 °F 51 °F (1989)
Min Temperature -5 °F 5 °F -22 °F (1985)
Degree Days  
Heating Degree Days 62    
Moisture  
Dew Point -3 °F    
Average Humidity 75    
Maximum Humidity 85    
Minimum Humidity 61    
Precipitation  
Precipitation 0.00 in - - ()
Sea Level Pressure  
Sea Level Pressure 30.02 in    
Wind  
Wind Speed 6 mph (SSW)    
Max Wind Speed 13 mph    
Max Gust Speed -    
Visibility 10 miles    
Events      
Averages and records for this station are not official NWS values.
T = Trace of Precipitation, MM = Missing Value Source: NWS Daily Summary

Daily Weather History Graph

Daily Weather History Graph

Search for Another Location

Airport or City:

Trip Planner

Search our weather history database for the weather conditions in past years. The results will help you decide how hot, cold, wet, or windy it might be!

Date:

Astronomy

Jan. 31, 2014 Rise Set
Actual Time 7:38 AM CST 5:29 PM CST
Civil Twilight 7:07 AM CST 6:00 PM CST
Nautical Twilight 6:33 AM CST 6:35 PM CST
Astronomical Twilight 5:59 AM CST 7:08 PM CST
Moon 7:45 AM CST (1/31) 6:59 PM CST (1/31)
Length of Visible Light 10h 52m
Length of Day
9h 51m
New Moon, 1% of the Moon is Illuminated
Jan 31
New Moon
Feb 6
First Quarter
Feb 14
Full
Feb 22
Last Quarter
Mar 1
New

Hourly Weather History & Observations

Time (CST) Temp. Windchill Dew Point Humidity Pressure Visibility Wind Dir Wind Speed Gust Speed Precip Events Conditions
12:13 AM -2.2 °F -12.5 °F -7.6 °F 78% 30.04 in 10.0 mi WNW 4.6 mph - N/A   Clear
12:32 AM -2.2 °F -14.2 °F -7.6 °F 78% 30.03 in 10.0 mi WNW 5.8 mph - N/A   Clear
12:52 AM -2.2 °F -12.5 °F -7.6 °F 78% 30.05 in 10.0 mi West 4.6 mph - N/A   Clear
1:13 AM -2.2 °F -12.5 °F -7.6 °F 78% 30.06 in 10.0 mi West 4.6 mph - N/A   Clear
1:32 AM -2.2 °F -14.2 °F -7.6 °F 78% 30.05 in 10.0 mi WSW 5.8 mph - N/A   Clear
1:52 AM -2.2 °F -12.5 °F -7.6 °F 78% 30.05 in 10.0 mi West 4.6 mph - N/A   Clear
2:12 AM -4.0 °F -12.4 °F -7.6 °F 85% 30.05 in 10.0 mi West 3.5 mph - N/A   Clear
2:32 AM -4.0 °F -14.6 °F -7.6 °F 85% 30.05 in 10.0 mi WSW 4.6 mph - N/A   Clear
2:53 AM -2.2 °F -14.2 °F -7.6 °F 78% 30.05 in 10.0 mi West 5.8 mph - N/A   Clear
3:12 AM -4.0 °F -14.6 °F -7.6 °F 85% 30.05 in 10.0 mi West 4.6 mph - N/A   Clear
3:32 AM -2.2 °F -12.5 °F -7.6 °F 78% 30.05 in 10.0 mi West 4.6 mph - N/A   Clear
3:52 AM -4.0 °F -12.4 °F -9.4 °F 78% 30.04 in 10.0 mi WNW 3.5 mph - N/A   Clear
4:12 AM -4.0 °F -16.3 °F -7.6 °F 85% 30.04 in 10.0 mi WNW 5.8 mph - N/A   Clear
4:33 AM -2.2 °F -15.6 °F -9.4 °F 71% 30.04 in 10.0 mi WNW 6.9 mph - N/A   Clear
4:52 AM -2.2 °F -15.6 °F -9.4 °F 71% 30.03 in 10.0 mi WNW 6.9 mph - N/A   Clear
5:12 AM -4.0 °F -17.8 °F -9.4 °F 78% 30.04 in 10.0 mi WNW 6.9 mph - N/A   Clear
5:33 AM -4.0 °F -14.6 °F -9.4 °F 78% 30.05 in 10.0 mi WNW 4.6 mph - N/A   Clear
5:52 AM -4.0 °F -12.4 °F -9.4 °F 78% 30.05 in 10.0 mi WNW 3.5 mph - N/A   Clear
6:12 AM -5.8 °F -14.5 °F -9.4 °F 84% 30.05 in 10.0 mi West 3.5 mph - N/A   Clear
6:33 AM -5.8 °F -14.5 °F -9.4 °F 84% 30.05 in 10.0 mi WSW 3.5 mph - N/A   Clear
6:52 AM -5.8 °F - -9.4 °F 84% 30.05 in 10.0 mi Calm Calm - N/A   Clear
7:12 AM -5.8 °F - -11.2 °F 77% 30.04 in 10.0 mi Calm Calm - N/A   Clear
7:32 AM -5.8 °F -16.7 °F -11.2 °F 77% 30.05 in 10.0 mi South 4.6 mph - N/A   Clear
7:53 AM -5.8 °F -16.7 °F -9.4 °F 84% 30.06 in 10.0 mi South 4.6 mph - N/A   Clear
8:12 AM -5.8 °F -16.7 °F -9.4 °F 84% 30.07 in 10.0 mi South 4.6 mph - N/A   Clear
8:32 AM -5.8 °F -14.5 °F -9.4 °F 84% 30.09 in 10.0 mi South 3.5 mph - N/A   Clear
8:53 AM -4.0 °F -12.4 °F -9.4 °F 78% 30.10 in 10.0 mi South 3.5 mph - N/A   Clear
9:12 AM -2.2 °F -10.4 °F -9.4 °F 71% 30.10 in 10.0 mi South 3.5 mph - N/A   Clear
9:32 AM -0.4 °F -8.3 °F -7.6 °F 72% 30.10 in 10.0 mi South 3.5 mph - N/A   Clear
9:53 AM -0.4 °F -10.4 °F -7.6 °F 72% 30.10 in 10.0 mi South 4.6 mph - N/A   Clear
10:13 AM 1.4 °F -11.3 °F -5.8 °F 72% 30.10 in 10.0 mi SSW 6.9 mph - N/A   Clear
10:32 AM 3.2 °F -9.1 °F -5.8 °F 66% 30.10 in 10.0 mi SSW 6.9 mph - N/A   Clear
10:52 AM 5.0 °F -9.1 °F -5.8 °F 61% 30.10 in 10.0 mi SSW 9.2 mph - N/A   Clear
11:13 AM 6.8 °F -6.9 °F -4.0 °F 61% 30.10 in 10.0 mi SSW 9.2 mph - N/A   Clear
11:32 AM 6.8 °F -6.9 °F -2.2 °F 67% 30.09 in 10.0 mi SSW 9.2 mph - N/A   Clear
11:53 AM 8.6 °F -6.3 °F -2.2 °F 62% 30.08 in 10.0 mi SSW 11.5 mph - N/A   Clear
12:12 PM 8.6 °F -6.3 °F -2.2 °F 62% 30.07 in 10.0 mi SSW 11.5 mph - N/A   Clear
12:32 PM 8.6 °F -6.3 °F -0.4 °F 67% 30.07 in 10.0 mi South 11.5 mph - N/A   Clear
12:53 PM 8.6 °F -6.3 °F -0.4 °F 67% 30.05 in 10.0 mi South 11.5 mph - N/A   Clear
1:12 PM 10.4 °F -3.3 °F 1.4 °F 67% 30.04 in 10.0 mi South 10.4 mph - N/A   Clear
1:32 PM 10.4 °F -3.3 °F 1.4 °F 67% 30.03 in 10.0 mi SSW 10.4 mph - N/A   Clear
1:53 PM 12.2 °F -1.8 °F 3.2 °F 67% 30.02 in 10.0 mi SSW 11.5 mph - N/A   Clear
2:12 PM 12.2 °F -1.0 °F 3.2 °F 67% 30.01 in 10.0 mi SSW 10.4 mph - N/A   Clear
2:32 PM 12.2 °F -0.2 °F 3.2 °F 67% 30.01 in 10.0 mi SSW 9.2 mph - N/A   Clear
2:53 PM 12.2 °F -0.2 °F 3.2 °F 67% 30.00 in 10.0 mi SSW 9.2 mph - N/A   Clear
3:12 PM 12.2 °F -1.0 °F 5.0 °F 73% 30.00 in 10.0 mi SSW 10.4 mph - N/A   Clear
3:32 PM 12.2 °F -1.8 °F 5.0 °F 73% 30.00 in 10.0 mi South 11.5 mph - N/A   Clear
3:52 PM 12.2 °F -2.5 °F 5.0 °F 73% 30.00 in 10.0 mi South 12.7 mph - N/A   Clear
4:12 PM 12.2 °F -1.8 °F 5.0 °F 73% 29.99 in 10.0 mi South 11.5 mph - N/A   Clear
4:33 PM 12.2 °F -2.5 °F 3.2 °F 67% 29.98 in 10.0 mi SSW 12.7 mph - N/A   Clear
4:52 PM 10.4 °F -1.5 °F 5.0 °F 79% 29.98 in 10.0 mi SSW 8.1 mph - N/A   Clear
5:12 PM 10.4 °F -1.5 °F 3.2 °F 73% 29.98 in 10.0 mi SSW 8.1 mph - N/A   Clear
5:33 PM 10.4 °F 0.8 °F 3.2 °F 73% 29.97 in 10.0 mi South 5.8 mph - N/A   Clear
5:52 PM 10.4 °F -0.4 °F 3.2 °F 73% 29.96 in 10.0 mi South 6.9 mph - N/A   Clear
6:12 PM 8.6 °F -2.6 °F 3.2 °F 79% 29.96 in 10.0 mi South 6.9 mph - N/A   Clear
6:33 PM 8.6 °F -2.6 °F 3.2 °F 79% 29.96 in 10.0 mi South 6.9 mph - N/A   Clear
6:52 PM 8.6 °F -3.7 °F 3.2 °F 79% 29.96 in 10.0 mi South 8.1 mph - N/A   Clear
7:12 PM 8.6 °F -2.6 °F 1.4 °F 73% 29.96 in 10.0 mi South 6.9 mph - N/A   Clear
7:33 PM 6.8 °F -6.9 °F 1.4 °F 79% 29.96 in 10.0 mi South 9.2 mph - N/A   Clear
7:52 PM 8.6 °F -3.7 °F 1.4 °F 73% 29.96 in 10.0 mi South 8.1 mph - N/A   Clear
8:12 PM 8.6 °F -1.3 °F 1.4 °F 73% 29.96 in 10.0 mi South 5.8 mph - N/A   Clear
8:33 PM 8.6 °F -2.6 °F 1.4 °F 73% 29.95 in 10.0 mi South 6.9 mph - N/A   Clear
8:52 PM 6.8 °F -5.9 °F 1.4 °F 79% 29.94 in 10.0 mi South 8.1 mph - N/A   Clear
9:12 PM 6.8 °F -2.0 °F 1.4 °F 79% 29.95 in 10.0 mi South 4.6 mph - N/A   Clear
9:33 PM 6.8 °F -4.8 °F 1.4 °F 79% 29.94 in 10.0 mi South 6.9 mph - N/A   Clear
9:52 PM 6.8 °F -5.9 °F 1.4 °F 79% 29.94 in 10.0 mi South 8.1 mph - N/A   Clear
10:12 PM 8.6 °F -3.7 °F 1.4 °F 73% 29.95 in 10.0 mi South 8.1 mph - N/A   Clear
10:33 PM 8.6 °F -3.7 °F 3.2 °F 79% 29.95 in 10.0 mi South 8.1 mph - N/A   Scattered Clouds
10:52 PM 8.6 °F -5.5 °F 3.2 °F 79% 29.94 in 10.0 mi South 10.4 mph - N/A   Clear
11:12 PM 10.4 °F -2.4 °F 3.2 °F 73% 29.94 in 10.0 mi South 9.2 mph - N/A   Mostly Cloudy
11:33 PM 10.4 °F -4.1 °F 3.2 °F 73% 29.92 in 10.0 mi South 11.5 mph - N/A   Mostly Cloudy
11:52 PM 10.4 °F -3.3 °F 3.2 °F 73% 29.91 in 10.0 mi South 10.4 mph - N/A   Overcast